CW3817 Weather Reports


time (UTC)temp
F
wind
direction
speed
knots
gust
knots
rain 1hr
in
rain 24hr
in
rain mn
in
humidity
%
barometer
mb
20260508091224 33 274 0.9 1.7 0.01 0.19 0.03 97 999.8
20260508085203 32 274 0.0 2.6 0.00 0.20 0.02 96 999.8
20260508084203 32 275 0.0 0.0 0.00 0.20 0.02 95 999.7
20260508083203 31 275 0.0 1.7 0.00 0.20 0.02 95 999.7
20260508082204 31 274 0.0 1.7 0.00 0.21 0.02 94 999.8
20260508081203 31 275 0.0 0.9 0.00 0.22 0.02 93 999.8
20260508080203 31 275 0.0 0.0 0.00 0.22 0.02 92 999.8
20260508075203 31 275 0.0 0.0 0.00 0.22 0.02 91 999.8
20260508074203 31 275 0.0 0.0 0.00 0.23 0.02 91 999.6
20260508072225 32 275 0.0 0.0 0.00 0.24 0.02 90 999.7
20260508071203 32 275 0.0 0.0 0.00 0.25 0.02 89 999.6
20260508070204 33 275 0.0 1.7 0.00 0.25 0.02 90 999.6
20260508065203 33 275 0.0 2.6 0.01 0.26 0.02 90 999.6
20260508064203 34 275 0.0 2.6 0.01 0.26 0.02 91 999.6
20260508063203 34 275 0.0 0.0 0.01 0.27 0.02 92 999.6
20260508062203 34 274 0.0 3.5 0.00 0.27 0.01 93 999.6
20260508061202 34 278 0.9 5.2 0.00 0.27 0.01 94 999.6
20260508060203 33 289 0.0 3.5 0.00 0.28 0.01 93 999.6
20260508055203 33 288 0.9 5.2 0.00 0.27 0.00 92 999.7
20260508054204 33 285 0.0 4.3 0.00 0.28 0.00 92 1000.1
20260508053203 33 286 0.0 4.3 0.00 0.29 0.00 92 1000.1
20260508052204 33 286 0.0 4.3 0.00 0.29 0.00 92 1000.1
20260508050203 33 286 0.9 3.5 0.00 0.30 0.00 91 1000.0
20260508044203 34 286 0.9 4.3 0.00 0.32 0.00 92 1000.2
20260508043203 34 286 0.9 5.2 0.00 0.32 0.00 92 1000.2
20260508042203 33 302 0.0 2.6 0.00 0.33 0.00 91 1000.1
20260508041203 34 303 0.0 0.0 0.00 0.34 0.00 89 1000.4
20260508035225 34 303 0.0 0.0 0.01 0.34 0.34 87 1000.5
20260508034203 35 303 0.0 0.0 0.01 0.34 0.34 87 1000.5
20260508033203 35 303 0.0 0.0 0.01 0.35 0.34 87 1000.5
20260508032225 35 303 0.0 0.0 0.00 0.34 0.33 87 1000.4
20260508031203 36 303 0.0 0.0 0.00 0.35 0.33 87 1000.6
20260508030203 36 303 0.0 0.0 0.00 0.36 0.33 87 1000.6
20260508025203 36 302 0.0 0.9 0.00 0.36 0.33 86 1000.6
20260508024224 37 303 0.0 0.0 0.00 0.37 0.33 86 1000.7
20260508023223 37 303 0.0 1.7 0.00 0.38 0.33 85 1000.7
20260508022203 38 303 0.0 0.0 0.00 0.38 0.33 82 1000.7
20260508021204 38 303 0.0 0.0 0.00 0.39 0.33 82 1000.8
20260508020205 39 303 0.0 0.0 0.00 0.40 0.33 82 1000.8
20260508014204 40 303 0.0 0.0 0.00 0.40 0.32 82 1000.7
20260508013226 41 303 0.0 0.0 0.00 0.41 0.32 81 1000.7
20260508012205 41 303 0.0 1.7 0.00 0.41 0.32 80 1000.5
20260508011204 42 303 0.0 2.6 0.00 0.42 0.32 78 1000.6
20260508010205 43 303 0.0 2.6 0.00 0.43 0.32 76 1000.6
20260508005204 44 303 0.0 0.0 0.00 0.43 0.32 75 1000.6
20260508004205 45 303 0.0 0.0 0.00 0.45 0.32 73 1000.5
20260508002226 47 303 0.0 2.6 0.00 0.46 0.32 69 1000.1
20260508001204 48 302 1.7 3.5 0.00 0.47 0.32 67 1000.0
20260508000205 49 302 0.9 7.8 0.00 0.48 0.32 64 1000.0
20260507235203 50 267 1.7 8.7 0.01 0.49 0.32 63 999.7
20260507234204 50 260 1.7 9.6 0.01 0.50 0.32 63 999.5
20260507233203 50 270 2.6 6.1 0.01 0.51 0.32 66 999.5
20260507232204 51 312 0.0 4.3 0.01 0.52 0.32 66 999.5
20260507231204 51 317 1.7 5.2 0.00 0.52 0.31 65 999.4
20260507230224 51 294 1.7 9.6 0.00 0.53 0.31 65 999.4
20260507225203 51 285 0.9 5.2 0.01 0.54 0.31 64 999.4
20260507224203 51 264 2.6 13.0 0.01 0.55 0.31 63 999.3
20260507223224 52 252 4.3 9.6 0.01 0.56 0.31 63 999.3
20260507222224 52 235 3.5 9.6 0.01 0.57 0.31 63 999.1
20260507221203 52 280 5.2 11.3 0.00 0.57 0.30 63 999.0
20260507215204 52 230 2.6 13.0 0.00 0.59 0.30 63 998.9
20260507214204 53 260 1.7 15.6 0.00 0.61 0.30 62 998.8
20260507213205 54 260 8.7 18.2 0.00 0.62 0.30 61 998.8
20260507212225 55 276 4.3 14.8 0.00 0.63 0.30 60 998.4
20260507211204 55 253 0.9 7.8 0.00 0.64 0.30 59 998.4
20260507210203 55 248 2.6 9.6 0.00 0.66 0.30 56 998.4
20260507205204 56 270 3.5 9.6 0.01 0.67 0.30 55 998.2
20260507204203 56 234 0.0 5.2 0.01 0.68 0.30 54 998.0
20260507203204 56 275 2.6 10.4 0.01 0.69 0.30 51 998.0
20260507202203 57 253 5.2 10.4 0.00 0.70 0.29 50 997.9
20260507201203 57 270 4.3 9.6 0.00 0.71 0.29 53 997.9
20260507200203 56 271 5.2 10.4 0.00 0.72 0.29 52 997.9
20260507195203 56 284 3.5 12.2 0.01 0.74 0.29 58 997.9
20260507194203 57 321 5.2 20.9 0.00 0.74 0.28 54 997.9
20260507193224 59 288 7.8 17.4 0.00 0.75 0.28 50 997.9
20260507192202 59 217 4.3 9.6 0.00 0.76 0.28 44 997.7
20260507191203 59 289 3.5 10.4 0.00 0.77 0.28 45 997.7
20260507185705 58 315 0.9 9.6 0.02 0.78 0.28 46 997.7
20260507184704 58 241 0.9 7.0 0.02 0.79 0.28 47 997.7
20260507183705 58 251 2.6 13.9 0.01 0.79 0.27 46 997.9
20260507182704 59 252 4.3 11.3 0.01 0.79 0.27 45 998.2
20260507181704 59 268 2.6 8.7 0.01 0.80 0.27 45 998.2
20260507180704 59 250 0.0 12.2 0.00 0.80 0.26 49 998.2
20260507175704 59 220 6.1 10.4 0.01 0.81 0.26 44 998.3
20260507174703 59 279 0.0 5.2 0.01 0.82 0.26 47 998.3
20260507173704 59 357 2.6 8.7 0.01 0.83 0.26 48 998.3
20260507172703 58 262 2.6 9.6 0.01 0.83 0.26 51 998.6
20260507171704 58 335 0.9 7.0 0.01 0.84 0.26 54 998.6
20260507170703 58 284 0.0 5.2 0.00 0.84 0.25 50 998.7
20260507165724 58 237 4.3 11.3 0.01 0.85 0.25 50 998.8
20260507164703 57 293 0.9 7.8 0.00 0.84 0.24 53 998.8
20260507163703 57 265 1.7 7.8 0.00 0.84 0.24 55 998.8
20260507162703 57 319 1.7 8.7 0.00 0.84 0.24 58 998.8
20260507161703 56 293 1.7 10.4 0.00 0.84 0.24 59 998.8
20260507160703 56 280 0.0 10.4 0.00 0.84 0.24 65 999.2
20260507155205 56 296 2.6 10.4 0.00 0.84 0.24 59 999.4
20260507154205 56 229 3.5 9.6 0.00 0.84 0.24 64 999.4
20260507153205 55 303 1.7 8.7 0.00 0.84 0.24 68 999.4
20260507152204 54 331 2.6 7.0 0.00 0.84 0.24 71 999.5
20260507151226 53 358 3.5 7.8 0.00 0.84 0.24 70 999.6
20260507150225 53 281 1.7 8.7 0.00 0.84 0.24 73 999.6
20260507145204 52 341 0.9 8.7 0.00 0.84 0.24 76 999.9
20260507144204 51 289 3.5 7.8 0.00 0.84 0.24 76 999.9
20260507143204 50 23 1.7 7.8 0.00 0.84 0.24 83 999.9
20260507142203 49 309 3.5 7.8 0.00 0.84 0.24 82 1000.3
20260507141225 48 249 3.5 10.4 0.00 0.84 0.24 83 1000.1
20260507140203 48 252 1.7 6.1 0.00 0.84 0.24 84 1000.1
20260507135204 48 231 3.5 7.8 0.00 0.84 0.24 82 1000.4
20260507134225 48 287 2.6 7.8 0.00 0.84 0.24 82 1000.3
20260507133225 48 310 2.6 7.8 0.00 0.84 0.24 84 1000.3
20260507132204 47 283 2.6 6.1 0.00 0.84 0.24 85 1000.3
20260507131203 47 295 0.9 8.7 0.00 0.84 0.24 84 1000.2
20260507130204 47 307 1.7 6.1 0.00 0.84 0.24 88 1000.2
20260507125203 47 339 1.7 6.1 0.00 0.84 0.24 87 1000.5
20260507124203 47 282 2.6 5.2 0.00 0.84 0.24 89 1000.5
20260507123203 46 301 3.5 8.7 0.00 0.84 0.24 90 1000.5
20260507122203 46 260 0.9 8.7 0.00 0.84 0.24 95 1000.4
20260507121202 45 289 2.6 7.8 0.00 0.84 0.24 95 1000.3
20260507120203 45 275 5.2 9.6 0.00 0.84 0.24 96 1000.3
20260507115203 44 295 2.6 6.1 0.02 0.84 0.24 95 1000.5
20260507114205 44 276 1.7 5.2 0.02 0.84 0.24 95 1000.5
20260507113205 44 233 1.7 5.2 0.01 0.83 0.23 95 1000.5
20260507112204 44 267 0.9 5.2 0.01 0.83 0.23 96 1000.5
20260507111205 43 286 1.7 7.8 0.00 0.82 0.22 96 1000.1
20260507105247 43 286 2.6 7.0 0.02 0.82 0.22 96 1000.3
20260507104205 43 279 2.6 5.2 0.01 0.81 0.21 96 1000.0
20260507103246 42 311 0.9 8.7 0.01 0.81 0.21 95 1000.0
20260507102205 42 276 0.9 5.2 0.00 0.80 0.20 95 999.9
20260507101204 42 286 0.9 3.5 0.00 0.80 0.20 95 1000.0
20260507100204 42 278 1.7 6.1 0.00 0.81 0.20 95 1000.0
20260507095204 43 278 2.6 7.0 0.02 0.80 0.19 95 999.5
20260507094204 43 273 0.0 5.2 0.02 0.80 0.19 94 999.7
20260507093204 43 284 0.9 3.5 0.01 0.80 0.18 94 999.7
20260507092204 43 281 2.6 6.1 0.01 0.81 0.18 94 999.9